CAPE
88 123 136 17 0 4 0 0 0 0 0 0 0 0 0 0 0 0 0 0 0 0 0 1 0 0 1 0 0 0 0 1 1 0 0 0 1 1 1 2 1 2 2
77 107 120 154 78 59 38 0 0 0 0 0 0 0 0 0 0 0 0 0 0 0 0 0 0 0 2 0 0 0 0 0 0 0 0 0 0 1 0 1 2 2 2
29 73 65 99 105 87 67 18 0 0 0 0 0 0 0 0 0 0 0 0 0 0 0 0 0 0 0 0 0 0 0 0 0 0 0 0 0 0 0 1 1 2 3
36 22 0 63 69 136 123 4 0 0 0 0 0 0 0 0 0 0 0 0 0 0 0 0 0 0 0 0 0 0 0 0 0 0 0 0 0 0 0 0 1 1 3
66 38 12 29 57 57 117 43 0 0 0 0 0 0 0 0 0 0 0 0 0 0 0 0 0 0 0 0 0 0 0 0 0 0 0 0 0 0 0 0 1 3 4
143 37 28 11 31 26 110 64 0 0 0 0 0 0 0 0 0 0 0 0 0 0 0 0 0 0 0 0 0 0 0 0 0 0 0 0 0 0 0 0 2 4 8
321 110 105 60 61 60 84 148 0 0 0 0 0 0 0 0 0 0 0 0 0 0 0 0 0 0 0 0 0 0 0 0 0 0 0 0 0 0 0 2 2 4 5
503 408 292 129 54 101 94 106 0 0 0 0 0 0 0 0 0 0 0 0 0 0 0 0 0 0 0 0 0 0 0 0 0 0 0 0 0 0 0 0 2 3 5
327 412 523 515 213 61 101 66 0 0 0 0 0 0 0 0 0 0 0 0 0 0 0 0 0 0 0 0 0 0 0 0 0 0 0 0 0 0 0 1 3 6 6
356 481 227 261 442 477 262 96 0 0 0 0 0 0 0 0 0 0 0 0 0 0 0 0 0 0 0 0 0 0 0 0 0 0 0 0 0 0 2 3 5 6 9
372 286 397 348 335 492 440 201 27 0 0 0 0 0 0 0 0 0 0 0 0 0 0 0 0 0 0 0 0 0 0 0 0 0 0 0 0 0 4 6 7 9 8
177 273 245 279 362 423 398 276 62 0 0 0 0 0 0 0 0 0 0 0 0 0 0 0 0 0 0 0 0 0 0 0 0 0 0 0 0 0 1 1 3 2 3
50 98 191 237 282 352 368 288 63 0 0 0 0 0 0 0 0 0 0 0 0 0 0 0 0 0 0 0 0 0 0 0 0 0 0 0 0 0 0 0 1 4 2
0 1 79 114 209 247 248 173 108 34 0 0 0 0 0 0 0 0 0 0 0 0 0 0 0 0 0 0 0 0 0 0 0 0 0 0 0 0 0 0 1 2 6
0 0 0 20 68 98 148 124 131 116 21 0 0 0 0 0 0 0 0 0 0 0 0 0 0 0 0 0 0 0 0 0 0 0 0 0 0 0 0 2 2 2 4
0 0 0 0 1 60 69 63 49 13 0 0 0 0 0 0 0 0 0 0 0 0 0 0 0 0 0 0 0 0 0 0 0 0 0 0 0 0 1 5 5 6 7
0 0 0 0 0 2 1 0 0 0 0 0 0 1 1 0 0 0 0 0 0 0 0 0 0 0 0 0 0 0 0 0 0 0 0 0 0 3 5 4 8 9 6
0 0 0 0 0 0 0 0 0 0 0 0 0 0 1 0 4 1 1 1 0 0 0 0 0 0 0 1 0 0 0 0 0 0 0 0 3 4 2 0 2 3 6
0 0 0 0 0 0 0 0 0 0 0 0 0 0 0 0 1 1 0 0 0 0 0 0 0 0 1 2 2 0 0 0 0 0 0 0 0 0 0 3 5 7 10
0 0 0 0 0 0 0 0 0 0 0 0 0 0 0 0 0 0 0 0 0 0 0 0 1 3 3 1 0 0 0 0 0 0 0 0 0 0 0 1 1 1 2
0 0 0 0 0 0 0 0 0 0 0 0 0 0 0 0 1 0 0 0 0 0 1 1 0 0 0 0 0 0 0 0 0 0 0 0 0 0 0 0 0 0 0
0 0 0 0 0 2 4 2 0 0 1 1 0 0 0 1 4 10 5 6 0 0 0 0 0 0 0 0 0 0 0 0 0 0 0 0 0 0 0 0 0 0 2
0 0 0 0 2 3 9 8 3 0 0 0 0 1 2 2 1 0 3 4 3 5 2 0 0 0 0 0 0 0 0 0 0 0 0 0 0 0 0 0 0 0 0
1 1 1 1 0 7 9 6 1 0 0 0 1 0 0 0 0 0 0 0 0 0 0 0 0 0 0 0 0 0 0 0 0 0 0 0 0 0 0 0 0 0 0
0 1 0 0 0 0 10 4 0 0 0 1 0 0 0 0 0 0 0 0 0 0 0 0 0 0 0 0 0 0 0 0 0 0 0 0 0 0 0 0 0 0 0
0 1 0 0 2 0 0 0 0 0 0 0 0 0 0 0 0 0 0 0 0 0 0 0 0 0 0 0 0 0 0 0 0 0 0 0 0 0 0 0 0 0 0
CIN
-213 -158 -157 -338 -142 -360 0 0 0 0 0 0 0 0 0 0 0 0 0 0 0 0 0 0 0 0 0 0 0 0 0 0 0 0 0 0 0 0 0 0 0 0 0
-201 -172 -147 -127 -196 -201 -210 0 0 0 0 0 0 0 0 0 0 0 0 0 0 0 0 0 0 0 0 0 0 0 0 0 0 0 0 0 0 0 0 0 0 0 0
-112 -131 -166 -145 -116 -128 -156 -173 0 0 0 0 0 0 0 0 0 0 0 0 0 0 0 0 0 0 0 0 0 0 0 0 0 0 0 0 0 0 0 0 0 0 0
-107 -122 0 -157 -155 -66 -77 -70 0 0 0 0 0 0 0 0 0 0 0 0 0 0 0 0 0 0 0 0 0 0 0 0 0 0 0 0 0 0 0 0 0 0 0
-105 -101 -124 -115 -166 -130 -98 -110 -2 0 0 0 0 0 0 0 0 0 0 0 0 0 0 0 0 0 0 0 0 0 0 0 0 0 0 0 0 0 0 0 0 0 0
-96 -117 -135 -91 -145 -171 -114 -117 0 0 0 0 0 0 0 0 0 0 0 0 0 0 0 0 0 0 0 0 0 0 0 0 0 0 0 0 0 0 0 0 0 0 0
-48 -158 -127 -168 -94 -135 -133 -76 0 0 0 0 0 0 0 0 0 0 0 0 0 0 0 0 0 0 0 0 0 0 0 0 0 0 0 0 0 0 0 0 0 0 0
-50 -38 -72 -146 -156 -71 -111 -95 0 0 0 0 0 0 0 0 0 0 0 0 0 0 0 0 0 0 0 0 0 0 0 0 0 0 0 0 0 0 0 0 0 0 0
-99 -79 -30 -28 -99 -139 -41 -97 0 0 0 0 0 0 0 0 0 0 0 0 0 0 0 0 0 0 0 0 0 0 0 0 0 0 0 0 0 0 0 0 0 0 0
-102 -63 -93 -66 -43 -31 -57 -85 0 0 0 0 0 0 0 0 0 0 0 0 0 0 0 0 0 0 0 0 0 0 0 0 0 0 0 0 0 0 0 0 0 0 0
-62 -81 -51 -45 -35 -30 -25 -62 -147 0 0 0 0 0 0 0 0 0 0 0 0 0 0 0 0 0 0 0 0 0 0 0 0 0 0 0 0 0 0 0 0 0 0
-75 -59 -61 -62 -36 -30 -27 -42 -97 0 0 0 0 0 0 0 0 0 0 0 0 0 0 0 0 0 0 0 0 0 0 0 0 0 0 0 0 0 0 0 0 0 0
-64 -77 -70 -54 -43 -30 -27 -40 -92 0 0 0 0 0 0 0 0 0 0 0 0 0 0 0 0 0 0 0 0 0 0 0 0 0 0 0 0 0 0 0 0 0 0
-6 -62 -71 -52 -30 -21 -20 -42 -87 -95 0 0 0 0 0 0 0 0 0 0 0 0 0 0 0 0 0 0 0 0 0 0 0 0 0 0 0 0 0 0 0 0 0
0 0 0 -45 -47 -81 -49 -54 -41 -52 -130 0 0 0 0 0 0 0 0 0 0 0 0 0 0 0 0 0 0 0 0 0 0 0 0 0 0 0 0 0 0 0 0
0 0 0 0 -18 -60 -72 -101 -121 -87 0 0 0 0 0 0 0 0 0 0 0 0 0 0 0 0 0 0 0 0 0 0 0 0 0 0 0 0 0 0 0 0 0
0 0 0 0 -8 -44 -60 0 0 0 0 0 0 0 0 0 0 0 0 0 0 0 0 0 0 0 0 0 0 0 0 0 0 0 0 0 0 0 0 0 0 0 0
0 0 0 0 0 0 0 0 0 0 0 0 0 0 0 0 0 0 0 0 0 0 0 0 0 0 0 0 0 0 0 0 0 0 0 0 0 0 0 0 0 0 0
0 0 0 0 0 0 0 0 0 0 0 0 0 0 0 0 0 0 0 0 0 0 0 0 0 0 0 0 0 0 0 0 0 0 0 0 0 0 0 0 0 0 0
0 0 0 0 0 0 0 0 0 0 0 0 0 0 0 0 0 0 0 0 0 0 0 0 0 0 0 0 0 0 0 0 0 0 0 0 0 0 0 0 0 0 0
0 0 0 0 0 0 0 0 0 0 0 0 0 0 0 0 0 0 0 0 0 0 0 0 0 0 0 0 0 0 0 0 0 0 0 0 0 0 0 0 0 0 0
0 0 0 0 0 0 0 0 0 0 0 0 0 0 0 0 0 0 0 0 0 0 0 0 0 0 0 0 0 0 0 0 0 0 0 0 0 0 0 0 0 0 0
0 0 0 0 0 0 0 0 0 0 0 0 0 0 0 0 0 0 0 0 0 0 0 0 0 0 0 0 0 0 0 0 0 0 0 0 0 0 0 0 0 0 0
0 0 0 0 0 0 0 0 0 0 0 0 0 0 0 0 0 0 0 0 0 0 0 0 0 0 0 0 0 0 0 0 0 0 0 0 0 0 0 0 0 0 0
0 0 0 0 0 0 0 0 0 0 0 0 0 0 0 0 0 0 0 0 0 0 0 -1 0 0 0 0 0 0 0 0 0 0 0 0 0 0 0 0 0 0 0
0 0 0 -1 0 0 0 0 0 0 0 0 0 0 0 0 0 0 0 0 0 0 0 0 0 0 0 0 0 0 0 0 0 0 0 0 0 0 0 0 0 0 0
Wind_Speed
5 5 4 6 7 7 5 6 5 4 4 4 3 2 3 3 2 4 3 10 9 9 8 9 8 9 10 9 9 9 10 9 9 9 10 10 10 10 11 11 11 11 11
6 6 5 5 4 4 4 5 5 5 5 4 4 4 3 2 2 7 4 5 9 9 9 9 9 9 9 8 8 8 8 8 8 8 9 8 8 9 9 9 10 10 10
7 9 6 5 5 5 6 4 5 5 4 4 6 5 4 5 3 6 6 5 5 8 8 10 10 9 9 8 7 7 6 7 6 6 7 7 7 7 8 9 9 9 10
7 6 5 5 5 5 3 2 4 3 4 4 3 5 4 4 6 5 6 6 5 4 4 9 10 9 8 7 6 6 7 5 5 4 4 4 4 5 6 7 7 8 9
8 6 4 5 6 5 5 4 4 4 4 3 4 4 4 3 4 4 6 7 7 6 4 6 8 9 8 8 7 6 7 6 4 3 1 1 2 2 4 5 6 7 8
8 7 6 6 9 5 7 6 4 3 4 5 3 3 3 3 3 4 6 4 6 7 6 7 5 5 9 9 7 6 5 5 5 4 2 0 2 2 3 4 6 8 8
8 8 6 6 9 10 11 10 5 7 5 5 4 1 1 4 4 4 4 4 6 6 7 7 5 4 5 11 9 7 7 7 7 5 3 2 2 4 5 7 8 8 9
6 7 10 6 6 8 9 11 10 4 4 6 5 4 3 3 4 5 4 5 7 6 6 7 7 7 6 4 7 9 8 7 7 5 4 3 3 4 6 8 9 10 11
9 9 7 9 8 5 8 10 10 11 8 5 8 6 3 6 3 3 7 5 6 5 5 6 7 6 7 5 8 7 8 8 7 5 5 4 4 6 8 9 10 12 12
11 12 10 7 9 9 8 9 7 10 7 10 1 8 1 5 5 2 2 4 5 7 7 5 6 6 6 5 8 10 10 8 6 5 4 4 6 7 9 11 12 12 13
11 8 10 10 6 8 8 6 6 10 10 8 10 3 3 2 2 3 4 4 3 4 5 6 6 5 6 5 5 9 13 9 6 5 5 5 7 9 11 12 13 14 15
5 7 8 7 7 5 8 5 8 7 9 8 7 5 5 6 5 4 2 2 4 4 3 4 6 4 4 4 6 12 10 8 6 5 6 7 9 10 10 12 13 14 15
0 3 5 5 4 6 5 5 7 6 8 9 8 9 4 4 3 4 3 2 3 1 2 2 3 4 4 4 5 10 8 7 7 7 8 9 11 11 11 12 14 15 16
2 2 4 5 6 5 5 5 5 6 7 9 11 5 4 5 3 3 4 5 1 2 1 4 4 3 4 4 5 8 1 9 9 9 9 11 11 13 13 13 14 15 17
2 3 3 3 4 5 6 5 5 6 5 8 7 6 3 2 2 2 2 2 4 4 2 2 3 4 3 3 6 1 2 7 10 12 12 14 13 13 14 14 16 16 17
2 3 3 3 3 3 3 3 3 2 4 1 3 5 4 3 3 3 3 3 4 3 4 1 2 0 4 4 4 2 1 8 12 15 16 17 14 15 15 16 18 18 18
6 5 4 3 2 3 4 3 3 3 5 4 4 4 5 5 4 4 3 3 2 3 4 3 2 4 4 4 2 2 4 7 8 16 16 16 16 16 17 18 19 19 19
7 6 6 4 4 3 4 6 5 4 7 6 4 5 5 5 5 5 4 4 4 3 2 3 1 3 4 3 3 5 6 7 5 11 15 14 15 16 18 18 18 19 19
7 8 9 8 7 7 6 4 6 5 6 5 5 5 5 6 5 5 3 2 2 1 6 2 3 2 1 2 4 6 6 7 6 13 14 12 14 17 19 18 17 18 18
10 9 9 8 8 7 6 5 9 5 8 6 5 5 5 5 5 6 5 4 2 4 5 4 2 3 2 3 5 4 4 3 4 3 6 10 16 15 17 16 17 17 18
8 7 8 8 7 7 5 8 8 7 8 8 6 5 4 7 10 8 5 4 4 3 4 3 2 2 2 2 3 3 4 1 2 2 3 4 3 3 7 13 13 18 18
8 7 8 8 9 6 13 13 10 8 8 7 7 7 7 9 7 9 8 8 4 3 3 2 1 2 2 2 1 1 1 1 3 2 2 7 2 7 6 5 16 18 19
8 10 10 11 11 9 14 14 15 8 8 7 5 4 4 5 5 4 4 2 1 2 2 3 1 1 1 1 3 1 0 2 4 4 3 10 3 7 5 7 17 20 19
8 7 9 10 9 9 14 15 16 8 8 6 5 4 4 3 2 1 1 1 1 2 2 1 2 1 1 2 1 4 3 3 3 3 2 7 1 7 6 5 17 19 18
8 8 7 9 8 7 14 14 10 6 5 5 3 3 2 3 1 1 1 3 1 3 1 2 4 7 9 9 7 1 2 1 4 2 3 4 4 4 4 8 6 12 13
8 6 7 6 9 4 9 9 7 3 3 2 3 2 5 4 3 3 4 4 2 2 4 4 5 4 6 6 10 3 3 3 2 4 2 1 3 3 5 3 2 5 6
Wind_Direction
175 164 184 179 190 169 196 184 189 179 172 214 216 206 177 205 223 120 117 124 132 144 146 145 143 137 127 119 116 112 103 99 88 81 76 73 66 61 55 50 48 47 47
178 178 197 195 189 175 194 179 180 180 187 177 196 217 202 203 194 129 129 126 140 148 157 159 156 152 144 136 123 119 113 105 96 83 78 68 65 56 49 46 44 42 40
180 181 190 195 186 190 201 201 188 179 175 176 190 193 188 201 192 138 148 144 138 149 165 170 164 166 162 154 141 136 126 110 96 84 76 69 59 51 39 38 34 29 27
206 201 182 179 182 176 174 233 176 182 181 178 187 199 183 193 185 185 153 156 156 151 160 177 169 172 162 162 159 155 148 133 119 98 80 64 55 36 27 18 17 14 9
199 196 204 182 178 177 168 205 203 159 179 200 200 194 189 194 205 185 174 161 171 156 154 135 165 153 168 169 167 161 164 159 153 147 100 49 43 18 5 357 348 349 347
200 192 199 188 175 180 190 196 184 178 167 186 191 164 184 214 211 201 188 179 167 163 152 145 141 151 171 174 166 171 182 191 188 183 174 342 333 329 324 327 330 325 330
194 209 208 213 182 191 202 199 175 180 204 161 98 17 302 233 250 223 197 191 175 178 155 162 165 169 177 182 186 194 205 203 195 189 191 233 302 315 315 315 314 315 316
274 196 208 209 215 197 202 202 185 167 180 175 154 118 211 309 260 233 211 197 188 177 174 173 179 173 180 180 184 186 188 190 189 193 205 229 269 291 300 303 305 303 301
257 275 246 217 204 231 201 213 187 184 194 214 184 150 167 216 159 225 220 203 187 179 179 177 185 184 163 161 173 172 177 172 181 196 215 242 277 293 296 297 299 299 299
222 234 252 263 216 216 214 202 203 191 159 198 229 235 219 144 176 206 250 214 197 193 185 184 177 177 164 151 173 165 174 177 188 200 211 262 283 290 295 298 298 296 296
209 207 218 243 235 231 238 213 193 213 200 185 202 188 212 218 218 147 183 216 217 197 184 178 176 169 160 149 151 162 170 179 193 209 242 266 285 295 300 305 306 305 303
197 193 211 206 243 233 239 223 217 217 202 220 198 206 199 190 209 194 182 163 185 236 169 167 167 160 157 157 171 174 173 181 194 225 259 277 287 293 299 303 302 299 297
226 219 179 196 224 239 236 220 220 210 211 207 196 212 209 224 217 203 165 146 154 160 145 105 130 134 160 139 134 145 174 207 232 247 268 281 298 298 294 297 298 296 294
210 184 208 194 213 231 246 237 226 225 196 213 225 205 208 209 224 206 212 147 189 173 58 119 44 30 92 104 141 142 86 232 245 257 269 286 297 295 291 294 294 294 293
41 46 20 352 261 234 222 223 229 229 211 205 201 194 172 165 184 198 204 186 160 155 275 182 112 103 76 99 128 85 223 286 277 281 286 284 286 282 286 289 289 291 290
23 67 24 336 328 310 303 309 304 296 182 181 151 163 129 135 119 126 138 135 129 135 145 327 102 230 133 107 126 181 289 286 286 279 278 273 278 281 284 287 289 290 287
31 46 23 347 6 56 95 84 61 56 68 65 64 137 129 133 121 113 105 103 98 109 139 145 112 165 205 163 174 246 264 254 255 267 276 283 288 288 287 289 288 289 287
20 23 6 356 18 67 124 118 116 120 117 113 110 113 131 130 128 129 137 145 191 144 189 144 76 147 200 146 241 251 250 258 270 271 274 281 281 283 286 293 293 288 285
20 32 36 33 34 23 41 69 107 94 100 113 129 135 138 134 138 131 139 168 135 195 78 106 132 107 99 150 231 247 248 246 252 262 274 297 297 295 296 291 290 289 288
29 38 45 42 38 44 56 67 79 78 80 83 88 116 142 156 148 127 103 115 108 103 112 133 120 156 177 186 206 217 254 249 247 262 302 302 293 302 301 296 296 298 296
36 29 55 55 49 48 49 59 66 72 81 75 61 68 83 107 119 121 137 140 159 143 131 144 140 173 179 200 197 225 217 277 305 237 270 275 276 286 290 293 297 297 292
47 46 55 61 60 60 71 81 81 80 75 77 70 49 47 69 96 121 142 150 170 142 140 144 169 159 231 192 246 94 174 57 315 267 352 302 294 284 271 265 281 288 291
59 60 59 62 62 64 76 85 88 76 80 72 72 74 83 67 56 34 45 41 321 260 160 158 203 218 336 186 172 186 99 198 241 272 296 288 240 270 260 275 291 293 293
54 56 56 53 56 64 81 86 83 72 74 72 70 67 91 80 77 149 198 68 303 303 288 299 150 258 247 293 165 184 221 259 285 282 265 281 279 289 284 260 283 294 300
61 60 56 58 56 51 71 78 77 67 68 69 58 72 156 168 170 313 296 230 274 309 255 205 285 292 290 290 285 35 317 26 301 275 259 243 278 286 277 280 270 281 302
76 70 65 66 79 52 71 76 89 89 92 139 185 124 55 53 21 353 32 10 63 6 14 346 329 325 309 294 285 239 164 190 222 318 257 22 337 338 316 278 312 312 281